QPF
0.00 0.00 0.00 0.00 0.00 0.00 0.00 0.00 0.00 0.00 0.00 0.00 0.00 0.00 0.00 0.00 0.00 0.00 0.00 0.00 0.00 0.00 0.00 0.00 0.00 0.00 0.00 0.00 0.00 0.00 0.00 0.00 0.00 0.00 0.00 0.00 0.00 0.00 0.00 0.00 0.00 0.00 0.00 0.00
0.00 0.00 0.00 0.00 0.00 0.00 0.00 0.00 0.00 0.00 0.00 0.00 0.00 0.00 0.00 0.00 0.00 0.00 0.00 0.00 0.00 0.00 0.00 0.00 0.00 0.00 0.00 0.00 0.00 0.00 0.00 0.00 0.00 0.00 0.00 0.00 0.00 0.00 0.00 0.01 0.01 0.00 0.00 0.00
0.00 0.00 0.00 0.00 0.00 0.00 0.00 0.00 0.00 0.00 0.00 0.00 0.00 0.00 0.00 0.00 0.00 0.00 0.00 0.00 0.00 0.00 0.00 0.00 0.00 0.00 0.00 0.00 0.00 0.00 0.00 0.00 0.00 0.00 0.00 0.01 0.01 0.02 0.01 0.01 0.00 0.00 0.00 0.01
0.00 0.00 0.00 0.00 0.00 0.00 0.00 0.00 0.00 0.00 0.00 0.00 0.00 0.00 0.00 0.00 0.00 0.00 0.00 0.00 0.00 0.00 0.00 0.00 0.00 0.00 0.00 0.00 0.00 0.00 0.00 0.00 0.00 0.00 0.00 0.00 0.00 0.00 0.00 0.00 0.00 0.00 0.01 0.01
0.00 0.00 0.00 0.00 0.00 0.00 0.00 0.00 0.00 0.00 0.00 0.00 0.00 0.00 0.00 0.00 0.00 0.00 0.00 0.00 0.00 0.00 0.00 0.00 0.00 0.00 0.00 0.00 0.00 0.00 0.00 0.00 0.00 0.00 0.00 0.00 0.00 0.00 0.00 0.00 0.00 0.00 0.00 0.01
0.00 0.00 0.00 0.00 0.00 0.00 0.00 0.00 0.00 0.00 0.00 0.00 0.00 0.00 0.00 0.00 0.00 0.01 0.00 0.00 0.00 0.01 0.00 0.00 0.00 0.00 0.00 0.00 0.00 0.00 0.00 0.00 0.00 0.00 0.00 0.00 0.00 0.00 0.00 0.00 0.00 0.00 0.01 0.04
0.00 0.00 0.00 0.00 0.00 0.00 0.00 0.00 0.00 0.00 0.00 0.00 0.00 0.00 0.00 0.01 0.02 0.01 0.01 0.00 0.00 0.01 0.00 0.00 0.00 0.00 0.01 0.01 0.00 0.00 0.00 0.00 0.00 0.00 0.00 0.00 0.00 0.00 0.00 0.00 0.00 0.00 0.01 0.00
0.00 0.00 0.00 0.00 0.00 0.00 0.00 0.00 0.00 0.00 0.00 0.00 0.00 0.00 0.01 0.01 0.01 0.00 0.00 0.00 0.00 0.00 0.00 0.01 0.02 0.02 0.01 0.04 0.03 0.01 0.01 0.01 0.00 0.00 0.00 0.00 0.00 0.00 0.00 0.00 0.01 0.01 0.02 0.01
0.00 0.00 0.00 0.00 0.00 0.00 0.00 0.00 0.00 0.00 0.00 0.00 0.00 0.00 0.00 0.00 0.00 0.00 0.00 0.00 0.00 0.00 0.00 0.00 0.01 0.02 0.04 0.05 0.05 0.05 0.03 0.02 0.03 0.02 0.01 0.01 0.01 0.01 0.01 0.03 0.05 0.05 0.05 0.03
0.00 0.00 0.00 0.00 0.00 0.00 0.00 0.00 0.01 0.01 0.01 0.00 0.00 0.00 0.00 0.00 0.00 0.00 0.00 0.00 0.00 0.00 0.00 0.00 0.00 0.00 0.02 0.05 0.07 0.08 0.04 0.02 0.03 0.03 0.02 0.01 0.03 0.07 0.04 0.04 0.03 0.03 0.01 0.00
0.00 0.00 0.00 0.00 0.00 0.00 0.00 0.01 0.01 0.01 0.01 0.00 0.00 0.00 0.00 0.00 0.00 0.00 0.00 0.00 0.00 0.00 0.00 0.00 0.00 0.00 0.00 0.03 0.05 0.11 0.08 0.02 0.04 0.03 0.02 0.01 0.02 0.01 0.00 0.01 0.02 0.03 0.04 0.01
0.00 0.00 0.00 0.00 0.00 0.00 0.00 0.00 0.01 0.01 0.00 0.00 0.00 0.00 0.00 0.00 0.00 0.00 0.00 0.00 0.00 0.00 0.00 0.00 0.00 0.00 0.00 0.01 0.02 0.06 0.14 0.12 0.03 0.04 0.05 0.07 0.01 0.00 0.00 0.01 0.03 0.05 0.05 0.03
0.00 0.00 0.00 0.00 0.00 0.00 0.00 0.00 0.00 0.01 0.01 0.00 0.00 0.00 0.00 0.00 0.00 0.00 0.00 0.00 0.00 0.00 0.00 0.00 0.00 0.00 0.00 0.00 0.01 0.02 0.06 0.08 0.09 0.07 0.09 0.08 0.10 0.07 0.06 0.07 0.09 0.09 0.08 0.05
0.00 0.00 0.00 0.00 0.00 0.00 0.00 0.00 0.00 0.00 0.01 0.00 0.00 0.00 0.00 0.00 0.00 0.00 0.00 0.00 0.00 0.00 0.00 0.00 0.00 0.00 0.00 0.00 0.01 0.01 0.00 0.02 0.03 0.04 0.08 0.08 0.09 0.09 0.11 0.13 0.15 0.11 0.06 0.03
0.00 0.00 0.00 0.00 0.00 0.00 0.00 0.00 0.00 0.00 0.00 0.00 0.00 0.00 0.00 0.00 0.00 0.00 0.00 0.00 0.00 0.00 0.00 0.00 0.00 0.00 0.00 0.00 0.00 0.00 0.00 0.00 0.00 0.02 0.01 0.04 0.05 0.06 0.08 0.08 0.06 0.03 0.01 0.01
0.00 0.00 0.00 0.00 0.00 0.01 0.00 0.00 0.00 0.00 0.00 0.00 0.00 0.00 0.00 0.00 0.00 0.00 0.00 0.00 0.00 0.00 0.00 0.00 0.00 0.00 0.00 0.00 0.00 0.00 0.00 0.00 0.00 0.01 0.02 0.01 0.02 0.00 0.01 0.00 0.00 0.00 0.00 0.00
0.00 0.00 0.00 0.00 0.00 0.00 0.00 0.00 0.00 0.00 0.00 0.00 0.00 0.00 0.00 0.00 0.00 0.00 0.00 0.00 0.00 0.00 0.00 0.00 0.00 0.00 0.00 0.00 0.00 0.00 0.00 0.00 0.00 0.00 0.00 0.00 0.00 0.00 0.00 0.00 0.00 0.00 0.00 0.00
0.00 0.00 0.00 0.00 0.00 0.00 0.00 0.00 0.00 0.00 0.00 0.00 0.00 0.00 0.00 0.00 0.00 0.00 0.00 0.00 0.00 0.00 0.00 0.00 0.00 0.00 0.00 0.00 0.00 0.00 0.00 0.00 0.00 0.00 0.00 0.00 0.00 0.00 0.00 0.00 0.00 0.00 0.00 0.00
0.00 0.00 0.00 0.00 0.00 0.00 0.00 0.00 0.00 0.00 0.00 0.00 0.00 0.00 0.00 0.00 0.00 0.00 0.00 0.00 0.00 0.00 0.00 0.00 0.00 0.00 0.00 0.00 0.00 0.00 0.00 0.00 0.00 0.00 0.00 0.00 0.00 0.00 0.00 0.00 0.00 0.00 0.00 0.00
0.00 0.00 0.00 0.00 0.00 0.00 0.00 0.00 0.00 0.00 0.00 0.00 0.00 0.00 0.00 0.00 0.00 0.00 0.00 0.00 0.00 0.00 0.00 0.00 0.00 0.00 0.00 0.00 0.00 0.00 0.00 0.00 0.00 0.00 0.00 0.00 0.00 0.00 0.00 0.00 0.00 0.00 0.00 0.00
0.00 0.00 0.00 0.00 0.00 0.00 0.00 0.00 0.00 0.00 0.00 0.00 0.00 0.00 0.00 0.00 0.00 0.00 0.00 0.00 0.00 0.00 0.00 0.00 0.00 0.00 0.00 0.00 0.00 0.00 0.00 0.00 0.00 0.00 0.00 0.00 0.00 0.00 0.00 0.00 0.00 0.00 0.00 0.00
0.00 0.00 0.00 0.00 0.00 0.00 0.00 0.00 0.00 0.00 0.00 0.00 0.00 0.00 0.00 0.00 0.00 0.00 0.00 0.00 0.00 0.00 0.00 0.00 0.00 0.00 0.00 0.00 0.00 0.00 0.00 0.00 0.00 0.00 0.00 0.00 0.00 0.00 0.00 0.00 0.00 0.00 0.00 0.00
0.00 0.00 0.00 0.00 0.00 0.00 0.00 0.00 0.00 0.00 0.00 0.00 0.00 0.00 0.00 0.00 0.00 0.00 0.00 0.00 0.00 0.00 0.00 0.00 0.00 0.00 0.00 0.00 0.00 0.00 0.00 0.00 0.00 0.00 0.00 0.00 0.00 0.00 0.00 0.00 0.00 0.00 0.00 0.00
0.00 0.00 0.00 0.00 0.00 0.00 0.00 0.00 0.00 0.00 0.00 0.00 0.00 0.00 0.00 0.00 0.00 0.00 0.00 0.00 0.00 0.00 0.00 0.00 0.00 0.00 0.00 0.00 0.00 0.00 0.00 0.00 0.00 0.00 0.00 0.00 0.00 0.00 0.00 0.00 0.00 0.00 0.00 0.00
0.00 0.00 0.00 0.00 0.00 0.00 0.00 0.00 0.00 0.00 0.00 0.00 0.00 0.00 0.00 0.00 0.00 0.00 0.00 0.00 0.00 0.00 0.00 0.00 0.00 0.00 0.00 0.00 0.00 0.00 0.00 0.00 0.00 0.00 0.00 0.00 0.00 0.00 0.00 0.00 0.00 0.00 0.00 0.00
0.00 0.00 0.00 0.00 0.00 0.00 0.00 0.00 0.00 0.00 0.00 0.00 0.00 0.00 0.00 0.00 0.00 0.00 0.00 0.00 0.00 0.00 0.00 0.00 0.00 0.00 0.00 0.00 0.00 0.00 0.00 0.00 0.00 0.00 0.00 0.00 0.00 0.00 0.00 0.00 0.00 0.00 0.00 0.00
MSLP
1012.74 1013.33 1013.78 1013.71 1013.83 1014.01 1014.46 1014.48 1013.89 1013.72 1013.23 1012.84 1012.45 1010.81 1008.10 1008.62 1009.03 1008.47 1007.93 1007.46 1006.95 1006.20 1004.97 1005.20 1004.91 1004.54 1004.35 1004.18 1003.68 1003.15 1003.29 1003.07 1003.51 1004.08 1004.59 1005.41 1005.94 1006.48 1006.86 1007.30 1007.56 1008.10 1008.05 1008.93
1013.35 1013.17 1013.16 1013.47 1013.78 1014.08 1014.44 1014.41 1013.83 1013.03 1012.88 1012.86 1012.10 1010.12 1009.03 1008.41 1008.50 1008.15 1007.40 1006.88 1006.62 1005.92 1006.01 1005.88 1005.27 1004.73 1004.45 1004.00 1003.51 1002.85 1002.40 1002.51 1002.61 1002.88 1003.14 1003.80 1004.51 1005.18 1005.49 1006.21 1007.16 1007.57 1007.63 1007.91
1013.21 1013.08 1012.94 1013.35 1013.68 1014.02 1014.30 1014.28 1013.84 1013.20 1012.79 1012.40 1011.88 1009.57 1008.38 1008.40 1007.49 1007.54 1006.82 1006.22 1006.23 1006.28 1006.28 1006.35 1005.95 1005.51 1005.25 1004.72 1004.06 1003.28 1002.18 1001.55 1001.46 1001.79 1002.56 1003.42 1004.15 1004.59 1005.54 1005.96 1006.40 1006.70 1007.32 1007.35
1012.98 1012.87 1013.21 1013.37 1013.66 1013.77 1013.91 1013.74 1013.55 1013.25 1013.26 1012.89 1012.44 1010.91 1006.72 1008.53 1007.75 1007.41 1006.40 1006.09 1007.30 1007.64 1007.41 1006.81 1006.30 1005.75 1005.31 1004.99 1004.32 1003.36 1002.33 1001.38 1000.62 1000.81 1001.46 1002.19 1002.58 1002.95 1003.59 1004.13 1004.79 1005.56 1006.25 1006.62
1013.14 1013.09 1013.27 1013.52 1013.45 1013.65 1013.62 1013.42 1013.54 1013.61 1013.78 1013.80 1011.17 1011.85 1008.37 1008.76 1007.48 1007.90 1008.29 1008.68 1008.83 1008.86 1008.54 1007.91 1007.12 1006.42 1005.76 1005.18 1004.45 1003.33 1002.02 1000.88 1000.05 1000.06 1000.44 1000.99 1001.80 1001.97 1002.35 1003.16 1004.17 1004.67 1005.32 1006.01
1013.52 1013.55 1013.58 1013.35 1013.33 1013.50 1013.53 1013.90 1013.90 1013.96 1014.47 1014.12 1012.12 1012.40 1009.29 1010.49 1010.70 1010.10 1010.06 1010.25 1010.29 1009.94 1009.53 1008.91 1008.13 1006.77 1006.18 1005.41 1004.65 1003.39 1001.59 999.95 999.48 999.41 999.62 1000.05 1000.68 1001.13 1001.91 1002.66 1003.53 1004.17 1004.48 1005.25
1014.53 1014.08 1013.34 1013.45 1013.75 1013.86 1014.06 1014.62 1015.05 1014.82 1014.63 1013.32 1012.30 1012.19 1011.41 1011.56 1012.02 1012.43 1012.19 1012.29 1011.93 1011.47 1010.78 1009.92 1009.06 1007.71 1006.77 1005.83 1005.11 1003.79 1002.25 1000.65 999.57 999.29 999.54 999.96 1000.25 1000.67 1000.83 1001.81 1002.80 1003.34 1003.89 1004.48
1015.38 1014.71 1014.11 1014.44 1014.47 1014.62 1014.64 1015.20 1015.76 1014.97 1014.24 1013.67 1013.14 1012.27 1011.97 1012.44 1012.96 1013.49 1013.45 1014.04 1013.50 1012.68 1011.82 1011.19 1010.09 1009.08 1007.80 1006.56 1005.45 1004.27 1003.03 1001.63 1000.66 999.37 999.23 999.64 1000.08 1000.61 1001.27 1001.64 1002.12 1003.03 1003.74 1003.94
1015.92 1015.16 1014.44 1014.17 1014.20 1014.46 1014.41 1014.61 1014.43 1014.92 1014.46 1014.16 1012.94 1011.92 1012.29 1012.50 1013.00 1013.28 1014.32 1014.39 1014.12 1013.52 1012.81 1012.05 1010.89 1010.10 1008.47 1007.46 1006.37 1004.71 1003.66 1002.35 1001.47 1000.37 999.20 999.29 999.74 1000.35 1001.08 1001.47 1001.78 1002.37 1003.13 1003.58
1015.90 1015.41 1014.75 1014.24 1013.93 1013.48 1013.68 1013.84 1014.53 1014.75 1014.26 1013.58 1012.40 1012.85 1013.55 1013.87 1013.75 1014.60 1015.16 1014.92 1014.74 1014.34 1013.75 1012.90 1011.54 1010.39 1009.21 1008.66 1006.51 1005.69 1004.58 1003.29 1002.46 1001.39 1000.15 999.21 999.86 1000.23 1000.76 1001.14 1001.62 1002.12 1002.73 1003.26
1016.13 1016.33 1015.41 1014.83 1013.93 1013.48 1013.86 1013.98 1014.16 1014.28 1013.61 1012.96 1013.11 1014.18 1015.03 1015.49 1015.64 1015.96 1016.18 1015.91 1015.93 1015.31 1014.64 1013.60 1012.40 1011.20 1010.18 1008.68 1007.25 1006.22 1005.18 1004.09 1003.01 1001.79 1000.64 999.93 999.88 1000.13 1000.61 1001.07 1001.44 1001.95 1002.54 1003.17
1016.28 1016.57 1015.89 1014.69 1013.65 1013.28 1013.40 1013.64 1014.07 1014.35 1013.07 1012.67 1012.97 1015.10 1015.95 1016.38 1016.84 1017.12 1017.07 1016.69 1016.53 1016.17 1015.33 1014.51 1013.00 1012.12 1010.38 1009.90 1008.93 1007.94 1006.65 1005.44 1004.16 1002.98 1001.70 1000.42 1000.31 1000.40 1000.73 1001.12 1001.42 1001.99 1002.71 1002.88
1016.51 1016.68 1016.35 1014.37 1014.25 1013.37 1013.57 1014.08 1013.81 1013.90 1013.77 1012.65 1013.70 1015.68 1016.72 1017.30 1017.65 1018.12 1018.03 1017.77 1017.23 1016.55 1015.72 1014.87 1013.60 1012.24 1011.52 1010.48 1009.48 1008.46 1007.45 1006.76 1005.49 1004.26 1002.94 1001.80 1001.45 1001.04 1001.20 1001.62 1001.67 1002.04 1002.43 1003.29
1016.38 1016.43 1016.36 1015.59 1014.34 1014.38 1014.14 1014.03 1013.69 1013.26 1013.27 1013.06 1014.56 1016.21 1017.59 1018.60 1018.96 1018.90 1018.98 1018.82 1018.20 1017.52 1016.91 1016.02 1014.73 1013.96 1012.95 1011.91 1011.02 1010.06 1009.24 1008.08 1006.49 1005.53 1004.51 1003.45 1003.12 1002.43 1001.91 1002.04 1001.96 1002.41 1003.19 1003.43
1016.13 1016.10 1015.86 1015.18 1014.57 1014.91 1014.95 1014.51 1014.05 1011.97 1012.68 1013.82 1015.96 1017.53 1019.11 1020.07 1020.23 1020.34 1020.28 1019.65 1018.91 1018.43 1017.79 1016.92 1016.11 1015.07 1014.07 1013.23 1012.42 1011.35 1010.43 1009.42 1008.43 1007.23 1005.76 1005.47 1004.82 1004.45 1003.27 1003.29 1003.07 1003.64 1003.95 1004.59
1015.96 1015.77 1015.52 1014.54 1014.30 1014.83 1015.44 1015.20 1015.24 1014.50 1014.97 1015.89 1016.98 1018.74 1020.32 1021.09 1021.32 1021.26 1021.01 1020.50 1020.23 1019.75 1019.09 1018.26 1017.21 1016.34 1015.64 1014.97 1014.01 1013.00 1012.08 1010.96 1009.97 1008.73 1008.29 1007.68 1007.12 1006.83 1005.36 1005.42 1005.19 1005.63 1006.20 1006.53
1015.83 1015.56 1015.33 1014.10 1014.03 1014.71 1015.67 1016.56 1016.46 1016.59 1016.88 1017.08 1017.85 1019.74 1020.93 1021.62 1021.96 1022.26 1022.17 1021.90 1021.49 1020.91 1020.23 1019.39 1018.86 1018.43 1017.57 1016.60 1015.66 1014.49 1013.64 1012.63 1011.54 1010.97 1009.89 1009.00 1008.44 1008.62 1008.11 1007.89 1007.68 1007.67 1008.28 1008.57
1014.95 1015.07 1014.95 1014.57 1014.42 1015.47 1016.78 1017.30 1017.50 1017.77 1018.45 1018.84 1019.51 1020.61 1021.58 1022.22 1022.91 1023.18 1023.37 1023.18 1022.74 1022.15 1021.60 1021.19 1020.73 1019.74 1018.73 1017.73 1016.82 1016.10 1015.18 1014.35 1013.47 1012.58 1011.63 1010.99 1010.14 1009.65 1009.38 1009.22 1009.45 1009.67 1009.95 1010.26
1014.02 1014.34 1014.23 1013.73 1014.91 1016.63 1017.10 1017.93 1018.22 1018.29 1019.69 1020.29 1020.70 1021.32 1021.92 1022.58 1022.83 1023.70 1024.18 1024.11 1023.95 1023.62 1023.09 1022.65 1021.90 1021.15 1020.01 1018.90 1018.31 1017.72 1016.88 1016.23 1015.59 1014.64 1013.99 1013.39 1013.03 1011.64 1011.17 1011.00 1011.03 1010.95 1011.28 1011.38
1013.70 1013.30 1013.82 1014.04 1014.93 1016.80 1018.00 1018.52 1018.79 1019.02 1020.51 1021.28 1021.69 1022.23 1022.52 1022.72 1023.84 1025.19 1025.26 1025.07 1024.87 1024.53 1023.98 1023.42 1022.83 1022.18 1020.89 1020.20 1019.63 1018.82 1018.26 1017.82 1016.96 1016.40 1016.03 1015.42 1014.49 1013.98 1013.48 1013.02 1012.69 1012.71 1012.60 1012.45
1014.19 1014.01 1014.42 1014.71 1015.96 1017.91 1019.02 1019.18 1019.10 1020.16 1022.18 1022.20 1022.74 1023.38 1023.65 1024.52 1025.66 1026.20 1026.14 1026.04 1025.84 1025.52 1025.07 1024.58 1023.82 1022.96 1022.38 1021.72 1021.04 1020.06 1019.43 1018.90 1019.03 1018.37 1017.31 1016.47 1015.89 1015.34 1015.07 1014.61 1014.36 1014.02 1013.80 1013.58
1015.76 1015.75 1016.09 1016.42 1017.39 1019.49 1019.97 1019.51 1020.03 1021.68 1022.47 1023.15 1024.01 1024.71 1025.19 1025.89 1026.47 1026.83 1026.96 1026.96 1026.81 1026.54 1026.13 1025.63 1025.03 1024.38 1023.89 1023.24 1022.43 1021.65 1020.93 1020.82 1020.22 1019.60 1018.78 1018.36 1017.69 1017.31 1016.88 1016.35 1016.02 1015.54 1015.06 1014.85
1016.99 1017.57 1017.86 1019.02 1019.86 1020.81 1021.36 1021.47 1021.82 1022.11 1023.13 1024.11 1024.67 1025.58 1026.30 1026.99 1027.40 1027.62 1027.79 1027.78 1027.73 1027.49 1027.26 1026.62 1026.02 1025.53 1025.04 1024.44 1023.81 1022.83 1022.53 1021.86 1021.25 1020.63 1020.47 1020.29 1019.76 1019.23 1018.62 1018.15 1017.76 1017.07 1016.79 1016.62
1018.24 1018.44 1019.08 1020.09 1021.08 1021.64 1022.24 1022.61 1022.89 1023.28 1023.99 1024.75 1025.51 1026.28 1026.95 1027.56 1028.07 1028.44 1028.50 1028.47 1028.32 1028.15 1027.80 1027.43 1026.87 1026.55 1026.06 1025.43 1024.74 1024.14 1023.37 1022.73 1022.15 1022.01 1021.91 1021.57 1021.07 1020.70 1020.19 1019.81 1019.51 1019.04 1018.60 1018.42
1019.37 1019.36 1019.96 1021.10 1021.87 1022.39 1023.00 1023.44 1023.65 1024.20 1024.65 1025.23 1025.87 1026.51 1027.20 1027.63 1028.38 1028.91 1029.22 1029.12 1028.96 1028.78 1028.55 1028.28 1027.88 1027.51 1027.30 1026.76 1026.02 1025.27 1024.60 1024.09 1023.42 1023.23 1023.16 1022.91 1022.42 1022.08 1021.83 1021.47 1021.03 1020.85 1020.65 1020.34
1019.75 1020.05 1020.41 1021.05 1021.41 1022.41 1023.29 1023.93 1024.15 1024.70 1025.38 1025.83 1026.21 1026.88 1027.46 1027.94 1028.39 1028.65 1029.09 1029.48 1029.51 1029.50 1029.38 1029.17 1028.92 1028.61 1028.32 1027.76 1027.12 1026.31 1025.54 1024.94 1024.60 1024.28 1024.29 1024.04 1023.91 1023.66 1023.32 1023.07 1022.84 1022.42 1022.27 1021.89
Thickness
5558 5547 5543 5554 5551 5553 5551 5546 5545 5555 5556 5555 5555 5575 5611 5603 5586 5591 5598 5605 5610 5618 5638 5634 5639 5643 5643 5646 5653 5662 5664 5671 5670 5672 5676 5671 5672 5672 5671 5670 5670 5668 5670 5666
5541 5535 5548 5548 5546 5541 5535 5530 5533 5551 5550 5545 5549 5569 5586 5591 5578 5579 5590 5594 5594 5604 5599 5606 5615 5625 5628 5633 5640 5652 5661 5662 5666 5667 5674 5674 5672 5670 5672 5668 5663 5660 5664 5667
5529 5540 5541 5535 5533 5530 5524 5521 5530 5538 5540 5539 5535 5558 5580 5576 5583 5573 5578 5579 5576 5574 5575 5576 5586 5594 5601 5604 5615 5631 5649 5659 5662 5665 5663 5663 5662 5662 5657 5658 5660 5661 5661 5664
5524 5529 5527 5524 5520 5521 5509 5525 5525 5527 5517 5517 5525 5508 5585 5557 5563 5561 5565 5568 5538 5533 5536 5544 5550 5562 5574 5579 5591 5612 5631 5646 5656 5659 5659 5660 5665 5666 5668 5666 5665 5662 5660 5662
5515 5514 5510 5508 5512 5514 5508 5517 5511 5510 5499 5487 5539 5487 5550 5545 5554 5539 5523 5510 5501 5501 5505 5509 5519 5531 5548 5562 5574 5593 5615 5635 5648 5652 5660 5660 5659 5666 5668 5664 5659 5658 5658 5658
5502 5504 5503 5501 5507 5506 5506 5496 5495 5491 5475 5467 5514 5487 5528 5504 5494 5496 5496 5491 5485 5484 5486 5492 5502 5519 5531 5547 5562 5580 5606 5630 5640 5649 5657 5659 5660 5662 5659 5658 5654 5653 5657 5655
5477 5485 5498 5496 5489 5487 5483 5467 5440 5439 5448 5469 5496 5478 5489 5474 5463 5461 5464 5464 5464 5464 5469 5477 5487 5503 5519 5536 5550 5569 5589 5610 5630 5642 5648 5652 5655 5656 5658 5655 5651 5651 5653 5651
5450 5461 5480 5473 5475 5466 5463 5452 5441 5442 5457 5460 5478 5469 5480 5462 5459 5450 5447 5440 5444 5451 5458 5465 5476 5491 5506 5524 5540 5556 5572 5593 5611 5634 5644 5649 5649 5647 5645 5647 5647 5644 5644 5648
5442 5452 5467 5468 5466 5461 5453 5434 5450 5437 5451 5438 5458 5480 5476 5466 5459 5451 5437 5435 5435 5438 5447 5458 5469 5478 5496 5510 5525 5544 5559 5578 5595 5612 5636 5643 5644 5641 5638 5638 5642 5643 5641 5643
5445 5435 5455 5455 5456 5451 5447 5450 5423 5429 5416 5439 5467 5472 5451 5443 5448 5438 5426 5427 5427 5430 5435 5445 5457 5468 5482 5491 5514 5529 5545 5564 5579 5594 5614 5635 5632 5632 5630 5634 5637 5641 5640 5640
5431 5421 5431 5431 5430 5429 5435 5430 5434 5434 5446 5449 5444 5442 5434 5427 5426 5420 5415 5416 5415 5420 5426 5437 5448 5461 5469 5491 5507 5519 5535 5552 5567 5584 5603 5619 5625 5624 5627 5631 5634 5635 5634 5630
5416 5392 5405 5420 5436 5440 5439 5437 5431 5419 5465 5477 5469 5441 5424 5419 5413 5409 5408 5411 5414 5415 5421 5429 5444 5454 5473 5480 5491 5503 5519 5537 5555 5571 5588 5608 5612 5619 5623 5624 5624 5624 5622 5623
5406 5396 5386 5430 5429 5443 5441 5433 5440 5437 5439 5477 5446 5428 5414 5408 5408 5403 5398 5398 5405 5413 5418 5425 5440 5455 5463 5474 5485 5496 5509 5520 5537 5555 5572 5587 5597 5608 5611 5610 5613 5614 5614 5610
5405 5397 5394 5408 5437 5437 5426 5434 5436 5444 5450 5458 5436 5429 5407 5400 5396 5394 5390 5390 5395 5404 5409 5418 5432 5442 5453 5464 5473 5483 5492 5505 5525 5539 5553 5564 5572 5586 5600 5601 5604 5603 5599 5600
5400 5403 5405 5414 5427 5425 5420 5422 5426 5469 5469 5461 5430 5413 5395 5386 5386 5382 5382 5387 5393 5396 5404 5413 5421 5434 5445 5453 5461 5471 5482 5492 5502 5518 5535 5543 5553 5561 5576 5584 5589 5584 5584 5583
5410 5406 5406 5414 5430 5425 5409 5411 5413 5422 5431 5422 5413 5401 5386 5379 5379 5379 5380 5385 5386 5390 5397 5406 5416 5425 5432 5437 5446 5456 5466 5478 5488 5501 5509 5521 5531 5535 5551 5553 5556 5560 5556 5558
5403 5405 5408 5431 5428 5425 5418 5404 5406 5405 5407 5421 5430 5396 5382 5376 5374 5371 5373 5376 5379 5386 5392 5400 5403 5407 5415 5424 5432 5442 5451 5462 5473 5480 5493 5506 5516 5517 5523 5527 5532 5536 5534 5535
5411 5408 5411 5429 5428 5428 5402 5401 5402 5398 5395 5398 5396 5385 5377 5370 5365 5366 5365 5367 5371 5377 5382 5385 5387 5396 5405 5415 5422 5430 5438 5446 5455 5466 5474 5484 5494 5497 5504 5512 5512 5513 5514 5514
5416 5418 5423 5447 5429 5407 5410 5395 5396 5407 5389 5383 5386 5384 5382 5374 5377 5367 5360 5360 5362 5364 5369 5372 5379 5386 5396 5405 5410 5415 5423 5429 5435 5446 5454 5461 5466 5478 5487 5491 5494 5498 5498 5500
5426 5428 5433 5442 5452 5429 5396 5388 5393 5399 5382 5377 5377 5376 5377 5385 5380 5355 5352 5354 5355 5358 5363 5367 5372 5377 5389 5395 5400 5406 5410 5414 5422 5428 5433 5440 5450 5457 5463 5468 5474 5475 5479 5482
5425 5429 5429 5441 5432 5404 5379 5380 5394 5405 5383 5370 5368 5362 5365 5358 5347 5343 5346 5347 5348 5351 5353 5356 5363 5371 5376 5381 5386 5394 5400 5404 5404 5410 5419 5426 5433 5439 5443 5448 5452 5457 5460 5463
5407 5411 5409 5424 5432 5419 5373 5393 5402 5375 5367 5363 5356 5350 5349 5341 5340 5339 5339 5338 5339 5341 5344 5347 5352 5358 5362 5366 5373 5378 5384 5385 5390 5395 5402 5405 5411 5414 5418 5424 5428 5434 5440 5443
5403 5389 5394 5384 5381 5366 5365 5370 5369 5372 5365 5357 5354 5347 5336 5330 5331 5331 5332 5332 5331 5332 5333 5339 5342 5345 5348 5353 5358 5366 5367 5372 5377 5381 5381 5382 5386 5391 5396 5400 5403 5411 5415 5418
5382 5384 5378 5374 5369 5365 5363 5363 5362 5361 5356 5352 5347 5340 5335 5330 5325 5322 5322 5323 5325 5326 5329 5332 5336 5338 5340 5343 5348 5353 5358 5362 5366 5366 5367 5368 5372 5375 5378 5381 5382 5386 5390 5391
5370 5376 5379 5366 5363 5363 5359 5356 5358 5355 5352 5347 5344 5339 5333 5330 5324 5320 5317 5317 5318 5320 5322 5325 5328 5330 5330 5334 5338 5342 5345 5348 5353 5353 5352 5352 5356 5358 5359 5361 5364 5364 5364 5366
5371 5372 5362 5354 5366 5361 5359 5350 5354 5350 5344 5342 5342 5336 5332 5328 5324 5323 5320 5319 5317 5316 5316 5317 5319 5321 5322 5325 5329 5334 5339 5341 5342 5344 5342 5342 5341 5342 5343 5342 5342 5344 5344 5345